Find Starlink 37559

NORAD ID: 100295 Int'l Des: 2026-183 Owner: SPXS Country: US Constellation: starlink operational

Current View

Loading 3D Globe...

About Starlink 37559

Starlink 37559 (NORAD 100295) is a starlink constellation satellite launched Aug 11, 2026 by SPXS of US. with a mass of 575.00 kg.

Upcoming Passes

Passes for default location (London). Set your location on the main map for personalized predictions.

Altitude History

Loading altitude history...

Two-Line Element Set

1 A0295U 26183Z 26262.48376364 .00036737 00000-0 66479-3 0 9996
2 A0295 53.1589 263.1328 0001070 90.2865 269.8267 15.49338358 6131
Epoch: Sep 19, 2026 • Age: 46 hours

Current Status

Altitude 432.2 km
Apogee / Perigee N/A
Velocity 7.65 km/s
Sub-Earth Point -40.69°S, 29.13°W
Launch Date Aug 11, 2026
Age 0.1 years
Type internet

Technical Details

Classification Payload
Mass 575.00 kg
Dry Mass 530.00 kg
Length 0.30 m
Span 29.00 m
Shape ? Box + pan
Manufacturer SPXS
Bus Type Starlink V2MO
Phase Status In Orbit
Owner/State SPXS/US

Most Searched